contact:dominique.lefevre@mio.osupytheas.fr, maurice.libes@osupytheas.fr, didier.mallarino@osupytheas.fr
Project:EMSO http://www.emso-fr.org/EMSO-France
Depth: 2436.0 m
Title:EMSO Ligure Ouest : Data MII capteur MICROCAT
DateTime_Computer,Latitude,Longitude,Temperature,Conductivity,Pressure,DateTime_Instrument
DateTime_Computer,Latitude,Longitude,degC,S m-1,dbar,DateTime_Instrument
2020-03-06T00:00:39Z,42.805,6.029,13.2982,4.60032,2469.984,2020-3-06T02:01:16Z
2020-03-06T00:03:42Z,42.805,6.029,13.2996,4.60080,2469.96,2020-3-06T02:04:19Z
2020-03-06T00:06:46Z,42.805,6.029,13.3005,4.59999,2469.984,2020-3-06T02:07:22Z
2020-03-06T00:09:49Z,42.805,6.029,13.2984,4.60053,2470.007,2020-3-06T02:10:25Z
2020-03-06T00:12:52Z,42.805,6.029,13.2993,4.60050,2469.993,2020-3-06T02:13:29Z
2020-03-06T00:15:55Z,42.805,6.029,13.2991,4.60008,2469.993,2020-3-06T02:16:32Z
2020-03-06T00:18:59Z,42.805,6.029,13.2991,4.60024,2469.993,2020-3-06T02:19:35Z
2020-03-06T00:22:02Z,42.805,6.029,13.2991,4.60005,2469.984,2020-3-06T02:22:38Z
2020-03-06T00:25:05Z,42.805,6.029,13.2985,4.60021,2470.007,2020-3-06T02:25:41Z
2020-03-06T00:28:08Z,42.805,6.029,13.3000,4.60032,2470.007,2020-3-06T02:28:45Z
2020-03-06T00:31:11Z,42.805,6.029,13.3007,4.60014,2469.984,2020-3-06T02:31:48Z
2020-03-06T00:34:15Z,42.805,6.029,13.2984,4.60036,2470.007,2020-3-06T02:34:51Z
2020-03-06T00:37:18Z,42.805,6.029,13.2982,4.60022,2469.993,2020-3-06T02:37:54Z
2020-03-06T00:40:21Z,42.805,6.029,13.2995,4.60040,2470.007,2020-3-06T02:40:57Z
2020-03-06T00:43:24Z,42.805,6.029,13.2991,4.60019,2470.017,2020-3-06T02:44:01Z
2020-03-06T00:46:27Z,42.805,6.029,13.2996,4.60016,2470.007,2020-3-06T02:47:04Z
2020-03-06T00:49:31Z,42.805,6.029,13.3001,4.60031,2470.044,2020-3-06T02:50:07Z
2020-03-06T00:52:34Z,42.805,6.029,13.2990,4.60052,2469.97,2020-3-06T02:53:10Z
2020-03-06T00:55:37Z,42.805,6.029,13.2998,4.60051,2470.017,2020-3-06T02:56:13Z
2020-03-06T00:58:40Z,42.805,6.029,13.3009,4.60017,2470.053,2020-3-06T02:59:17Z
2020-03-06T01:01:44Z,42.805,6.029,13.3027,4.60056,2470.053,2020-3-06T03:02:20Z
2020-03-06T01:04:47Z,42.805,6.029,13.3007,4.60047,2470.017,2020-3-06T03:05:23Z
2020-03-06T01:07:50Z,42.805,6.029,13.3011,4.60006,2469.984,2020-3-06T03:08:26Z
2020-03-06T01:10:53Z,42.805,6.029,13.3029,4.59995,2470.017,2020-3-06T03:11:30Z
2020-03-06T01:13:56Z,42.805,6.029,13.3020,4.59989,2470.017,2020-3-06T03:14:33Z
2020-03-06T01:17:00Z,42.805,6.029,13.3009,4.59987,2470.053,2020-3-06T03:17:36Z
2020-03-06T01:20:03Z,42.805,6.029,13.3000,4.60014,2469.993,2020-3-06T03:20:39Z
2020-03-06T01:23:06Z,42.805,6.029,13.2989,4.59997,2470.007,2020-3-06T03:23:42Z
2020-03-06T01:26:09Z,42.805,6.029,13.2990,4.60006,2470.03,2020-3-06T03:26:46Z
2020-03-06T01:29:12Z,42.805,6.029,13.3014,4.60003,2470.04,2020-3-06T03:29:49Z
2020-03-06T01:32:16Z,42.805,6.029,13.3022,4.60005,2470.03,2020-3-06T03:32:52Z
2020-03-06T01:35:19Z,42.805,6.029,13.2997,4.60011,2470.03,2020-3-06T03:35:55Z
2020-03-06T01:38:22Z,42.805,6.029,13.2996,4.60030,2470.063,2020-3-06T03:38:59Z
2020-03-06T01:41:25Z,42.805,6.029,13.2999,4.60028,2470.053,2020-3-06T03:42:02Z
2020-03-06T01:44:28Z,42.805,6.029,13.3012,4.60053,2470.063,2020-3-06T03:45:05Z
2020-03-06T01:47:32Z,42.805,6.029,13.2982,4.60018,2470.053,2020-3-06T03:48:08Z
2020-03-06T01:50:35Z,42.805,6.029,13.2995,4.60028,2470.04,2020-3-06T03:51:11Z
2020-03-06T01:53:38Z,42.805,6.029,13.3012,4.60003,2470.053,2020-3-06T03:54:15Z
2020-03-06T01:56:41Z,42.805,6.029,13.3018,4.60026,2470.053,2020-3-06T03:57:18Z
2020-03-06T01:59:45Z,42.805,6.029,13.3012,4.60030,2470.03,2020-3-06T04:00:21Z
2020-03-06T02:02:48Z,42.805,6.029,13.3024,4.60021,2470.077,2020-3-06T04:03:24Z
2020-03-06T02:05:51Z,42.805,6.029,13.3031,4.60009,2470.053,2020-3-06T04:06:28Z
2020-03-06T02:08:54Z,42.805,6.029,13.3031,4.60011,2470.077,2020-3-06T04:09:31Z
2020-03-06T02:11:57Z,42.805,6.029,13.3034,4.60013,2470.087,2020-3-06T04:12:34Z
2020-03-06T02:15:01Z,42.805,6.029,13.3029,4.60039,2470.077,2020-3-06T04:15:37Z
2020-03-06T02:18:04Z,42.805,6.029,13.3031,4.59996,2470.063,2020-3-06T04:18:40Z
2020-03-06T02:21:07Z,42.805,6.029,13.3051,4.59993,2470.077,2020-3-06T04:21:44Z
2020-03-06T02:24:10Z,42.805,6.029,13.3048,4.59998,2470.077,2020-3-06T04:24:47Z
2020-03-06T02:27:14Z,42.805,6.029,13.3053,4.60005,2470.077,2020-3-06T04:27:50Z
2020-03-06T02:30:17Z,42.805,6.029,13.3050,4.60014,2470.087,2020-3-06T04:30:53Z
2020-03-06T02:33:20Z,42.805,6.029,13.2979,4.60050,2470.077,2020-3-06T04:33:56Z
2020-03-06T02:36:23Z,42.805,6.029,13.2979,4.60033,2470.053,2020-3-06T04:37:00Z
2020-03-06T02:39:26Z,42.805,6.029,13.2991,4.60044,2470.063,2020-3-06T04:40:03Z
2020-03-06T02:42:30Z,42.805,6.029,13.3008,4.60041,2470.063,2020-3-06T04:43:06Z
2020-03-06T02:45:33Z,42.805,6.029,13.2974,4.60066,2470.077,2020-3-06T04:46:09Z
2020-03-06T02:48:36Z,42.805,6.029,13.2983,4.60067,2470.03,2020-3-06T04:49:13Z
2020-03-06T02:51:39Z,42.805,6.029,13.2973,4.60131,2470.077,2020-3-06T04:52:16Z
2020-03-06T02:54:43Z,42.805,6.029,13.2975,4.60033,2470.087,2020-3-06T04:55:19Z
2020-03-06T02:57:46Z,42.805,6.029,13.2972,4.60028,2470.063,2020-3-06T04:58:22Z
2020-03-06T03:00:49Z,42.805,6.029,13.2972,4.60028,2470.1,2020-3-06T05:01:25Z
2020-03-06T03:03:52Z,42.805,6.029,13.2976,4.60038,2470.063,2020-3-06T05:04:29Z
2020-03-06T03:06:55Z,42.805,6.029,13.2971,4.60020,2470.087,2020-3-06T05:07:32Z
2020-03-06T03:09:59Z,42.805,6.029,13.2970,4.60018,2470.063,2020-3-06T05:10:35Z
2020-03-06T03:13:02Z,42.805,6.029,13.2970,4.60026,2470.124,2020-3-06T05:13:38Z
2020-03-06T03:16:05Z,42.805,6.029,13.2971,4.60044,2470.1,2020-3-06T05:16:42Z
2020-03-06T03:19:08Z,42.805,6.029,13.2973,4.60028,2470.087,2020-3-06T05:19:45Z
2020-03-06T03:22:11Z,42.805,6.029,13.2974,4.60085,2470.087,2020-3-06T05:22:48Z
2020-03-06T03:25:15Z,42.805,6.029,13.2975,4.60094,2470.124,2020-3-06T05:25:51Z
2020-03-06T03:28:18Z,42.805,6.029,13.2968,4.60081,2470.156,2020-3-06T05:28:54Z
2020-03-06T03:31:21Z,42.805,6.029,13.2974,4.60044,2470.124,2020-3-06T05:31:58Z
2020-03-06T03:34:24Z,42.805,6.029,13.2973,4.60052,2470.124,2020-3-06T05:35:01Z
2020-03-06T03:37:28Z,42.805,6.029,13.2980,4.59993,2470.133,2020-3-06T05:38:04Z
2020-03-06T03:40:31Z,42.805,6.029,13.2973,4.59978,2470.133,2020-3-06T05:41:07Z
2020-03-06T03:43:34Z,42.805,6.029,13.2974,4.59983,2470.124,2020-3-06T05:44:10Z
2020-03-06T03:46:37Z,42.805,6.029,13.2969,4.59997,2470.171,2020-3-06T05:47:14Z
2020-03-06T03:49:40Z,42.805,6.029,13.2971,4.59986,2470.11,2020-3-06T05:50:17Z
2020-03-06T03:52:44Z,42.805,6.029,13.2972,4.59994,2470.133,2020-3-06T05:53:20Z
2020-03-06T03:55:47Z,42.805,6.029,13.2969,4.59983,2470.171,2020-3-06T05:56:23Z
2020-03-06T03:58:50Z,42.805,6.029,13.2971,4.59995,2470.147,2020-3-06T05:59:26Z
2020-03-06T04:01:53Z,42.805,6.029,13.2975,4.59996,2470.147,2020-3-06T06:02:30Z
2020-03-06T04:04:56Z,42.805,6.029,13.2971,4.59978,2470.147,2020-3-06T06:05:33Z
2020-03-06T04:08:00Z,42.805,6.029,13.2976,4.59981,2470.11,2020-3-06T06:08:36Z
2020-03-06T04:11:03Z,42.805,6.029,13.2974,4.59978,2470.133,2020-3-06T06:11:39Z
2020-03-06T04:14:06Z,42.805,6.029,13.2970,4.59978,2470.147,2020-3-06T06:14:43Z
2020-03-06T04:17:09Z,42.805,6.029,13.2972,4.59985,2470.171,2020-3-06T06:17:46Z
2020-03-06T04:20:13Z,42.805,6.029,13.2968,4.59980,2470.171,2020-3-06T06:20:49Z
2020-03-06T04:23:16Z,42.805,6.029,13.2970,4.59991,2470.11,2020-3-06T06:23:52Z
2020-03-06T04:26:19Z,42.805,6.029,13.2975,4.59978,2470.133,2020-3-06T06:26:55Z
2020-03-06T04:29:22Z,42.805,6.029,13.2974,4.59977,2470.171,2020-3-06T06:29:59Z
2020-03-06T04:32:25Z,42.805,6.029,13.2974,4.59977,2470.18,2020-3-06T06:33:02Z
2020-03-06T04:35:29Z,42.805,6.029,13.2970,4.59976,2470.156,2020-3-06T06:36:05Z
2020-03-06T04:38:32Z,42.805,6.029,13.2973,4.59978,2470.156,2020-3-06T06:39:08Z
2020-03-06T04:41:35Z,42.805,6.029,13.2973,4.59978,2470.11,2020-3-06T06:42:11Z
2020-03-06T04:44:38Z,42.805,6.029,13.2976,4.59978,2470.147,2020-3-06T06:45:15Z
2020-03-06T04:47:41Z,42.805,6.029,13.2974,4.59979,2470.171,2020-3-06T06:48:18Z
2020-03-06T04:50:45Z,42.805,6.029,13.2973,4.59975,2470.124,2020-3-06T06:51:21Z
2020-03-06T04:53:48Z,42.805,6.029,13.2980,4.59976,2470.133,2020-3-06T06:54:24Z
2020-03-06T04:56:51Z,42.805,6.029,13.2987,4.59974,2470.156,2020-3-06T06:57:28Z
2020-03-06T04:59:54Z,42.805,6.029,13.2989,4.59975,2470.156,2020-3-06T07:00:31Z
2020-03-06T05:02:58Z,42.805,6.029,13.2983,4.59976,2470.171,2020-3-06T07:03:34Z
2020-03-06T05:06:01Z,42.805,6.029,13.2986,4.59976,2470.133,2020-3-06T07:06:37Z
2020-03-06T05:09:04Z,42.805,6.029,13.2974,4.59976,2470.147,2020-3-06T07:09:40Z
2020-03-06T05:12:07Z,42.805,6.029,13.2976,4.59981,2470.133,2020-3-06T07:12:44Z
2020-03-06T05:15:10Z,42.805,6.029,13.2974,4.59973,2470.133,2020-3-06T07:15:47Z
2020-03-06T05:18:14Z,42.805,6.029,13.2976,4.59975,2470.156,2020-3-06T07:18:50Z
2020-03-06T05:21:17Z,42.805,6.029,13.2979,4.59976,2470.147,2020-3-06T07:21:53Z
2020-03-06T05:24:20Z,42.805,6.029,13.2989,4.59976,2470.147,2020-3-06T07:24:57Z
2020-03-06T05:27:23Z,42.805,6.029,13.2977,4.59979,2470.147,2020-3-06T07:28:00Z
2020-03-06T05:30:26Z,42.805,6.029,13.2974,4.59978,2470.156,2020-3-06T07:31:03Z
2020-03-06T05:33:30Z,42.805,6.029,13.2974,4.59974,2470.133,2020-3-06T07:34:06Z
2020-03-06T05:36:33Z,42.805,6.029,13.2979,4.59980,2470.124,2020-3-06T07:37:09Z
2020-03-06T05:39:36Z,42.805,6.029,13.2976,4.59979,2470.133,2020-3-06T07:40:13Z
2020-03-06T05:42:39Z,42.805,6.029,13.2976,4.59978,2470.133,2020-3-06T07:43:16Z
2020-03-06T05:45:43Z,42.805,6.029,13.2972,4.59975,2470.171,2020-3-06T07:46:19Z
2020-03-06T05:48:46Z,42.805,6.029,13.2971,4.59975,2470.133,2020-3-06T07:49:22Z
2020-03-06T05:51:49Z,42.805,6.029,13.2974,4.59973,2470.133,2020-3-06T07:52:25Z
2020-03-06T05:54:52Z,42.805,6.029,13.2971,4.59974,2470.147,2020-3-06T07:55:29Z
2020-03-06T05:57:55Z,42.805,6.029,13.2974,4.59973,2470.147,2020-3-06T07:58:32Z
2020-03-06T06:00:59Z,42.805,6.029,13.2973,4.59973,2470.11,2020-3-06T08:01:35Z
2020-03-06T06:04:02Z,42.805,6.029,13.2974,4.59973,2470.124,2020-3-06T08:04:38Z
2020-03-06T06:07:05Z,42.805,6.029,13.2971,4.59975,2470.087,2020-3-06T08:07:41Z
2020-03-06T06:10:08Z,42.805,6.029,13.2974,4.59976,2470.156,2020-3-06T08:10:45Z
2020-03-06T06:13:11Z,42.805,6.029,13.2971,4.59973,2470.124,2020-3-06T08:13:48Z
2020-03-06T06:16:15Z,42.805,6.029,13.2974,4.59976,2470.087,2020-3-06T08:16:51Z
2020-03-06T06:19:18Z,42.805,6.029,13.2974,4.59976,2470.147,2020-3-06T08:19:55Z
2020-03-06T06:22:21Z,42.805,6.029,13.2977,4.59973,2470.133,2020-3-06T08:22:58Z
2020-03-06T06:25:25Z,42.805,6.029,13.2971,4.59973,2470.11,2020-3-06T08:26:01Z
2020-03-06T06:28:28Z,42.805,6.029,13.2974,4.59973,2470.124,2020-3-06T08:29:04Z
2020-03-06T06:31:31Z,42.805,6.029,13.2968,4.59973,2470.124,2020-3-06T08:32:08Z
2020-03-06T06:34:34Z,42.805,6.029,13.2967,4.59974,2470.124,2020-3-06T08:35:11Z
2020-03-06T06:37:38Z,42.805,6.029,13.2974,4.59973,2470.156,2020-3-06T08:38:14Z
2020-03-06T06:40:41Z,42.805,6.029,13.2972,4.59976,2470.124,2020-3-06T08:41:17Z
2020-03-06T06:43:44Z,42.805,6.029,13.2973,4.59973,2470.11,2020-3-06T08:44:20Z
2020-03-06T06:46:47Z,42.805,6.029,13.2971,4.59973,2470.156,2020-3-06T08:47:24Z
2020-03-06T06:49:50Z,42.805,6.029,13.2974,4.59973,2470.11,2020-3-06T08:50:27Z
2020-03-06T06:52:54Z,42.805,6.029,13.2968,4.59974,2470.147,2020-3-06T08:53:30Z
2020-03-06T06:55:57Z,42.805,6.029,13.2974,4.59974,2470.147,2020-3-06T08:56:33Z
2020-03-06T06:59:00Z,42.805,6.029,13.2974,4.59973,2470.124,2020-3-06T08:59:37Z
2020-03-06T07:02:03Z,42.805,6.029,13.2971,4.59973,2470.124,2020-3-06T09:02:40Z
2020-03-06T07:05:07Z,42.805,6.029,13.2971,4.59975,2470.063,2020-3-06T09:05:43Z
2020-03-06T07:08:10Z,42.805,6.029,13.2971,4.59973,2470.087,2020-3-06T09:08:46Z
2020-03-06T07:11:13Z,42.805,6.029,13.2975,4.59973,2470.133,2020-3-06T09:11:50Z
2020-03-06T07:14:16Z,42.805,6.029,13.2974,4.59973,2470.124,2020-3-06T09:14:53Z
2020-03-06T07:17:20Z,42.805,6.029,13.2974,4.59973,2470.087,2020-3-06T09:17:56Z
2020-03-06T07:20:23Z,42.805,6.029,13.2967,4.59976,2470.077,2020-3-06T09:20:59Z
2020-03-06T07:23:26Z,42.805,6.029,13.2969,4.59972,2470.133,2020-3-06T09:24:02Z
2020-03-06T07:26:29Z,42.805,6.029,13.2972,4.59973,2470.133,2020-3-06T09:27:06Z
2020-03-06T07:29:32Z,42.805,6.029,13.2971,4.59973,2470.133,2020-3-06T09:30:09Z
2020-03-06T07:32:36Z,42.805,6.029,13.2972,4.59978,2470.147,2020-3-06T09:33:12Z
2020-03-06T07:35:39Z,42.805,6.029,13.2972,4.59975,2470.11,2020-3-06T09:36:15Z
2020-03-06T07:38:42Z,42.805,6.029,13.2970,4.59975,2470.147,2020-3-06T09:39:19Z
2020-03-06T07:41:45Z,42.805,6.029,13.2969,4.59973,2470.124,2020-3-06T09:42:22Z
2020-03-06T07:44:49Z,42.805,6.029,13.2975,4.59973,2470.133,2020-3-06T09:45:25Z
2020-03-06T07:47:52Z,42.805,6.029,13.2969,4.59973,2470.11,2020-3-06T09:48:28Z
2020-03-06T07:50:55Z,42.805,6.029,13.2970,4.59972,2470.1,2020-3-06T09:51:31Z
2020-03-06T07:53:58Z,42.805,6.029,13.2974,4.59972,2470.133,2020-3-06T09:54:35Z
2020-03-06T07:57:01Z,42.805,6.029,13.2972,4.59972,2470.11,2020-3-06T09:57:38Z
2020-03-06T08:00:05Z,42.805,6.029,13.2971,4.59973,2470.087,2020-3-06T10:00:41Z
2020-03-06T08:03:08Z,42.805,6.029,13.2971,4.59973,2470.087,2020-3-06T10:03:44Z
2020-03-06T08:06:11Z,42.805,6.029,13.2970,4.59973,2470.1,2020-3-06T10:06:48Z
2020-03-06T08:09:14Z,42.805,6.029,13.2974,4.59973,2470.087,2020-3-06T10:09:51Z
2020-03-06T08:12:18Z,42.805,6.029,13.2971,4.59973,2470.063,2020-3-06T10:12:54Z
2020-03-06T08:15:21Z,42.805,6.029,13.2975,4.59974,2470.063,2020-3-06T10:15:57Z
2020-03-06T08:18:24Z,42.805,6.029,13.2973,4.59974,2470.1,2020-3-06T10:19:01Z
2020-03-06T08:21:27Z,42.805,6.029,13.2971,4.59972,2470.124,2020-3-06T10:22:04Z
2020-03-06T08:24:31Z,42.805,6.029,13.2973,4.59972,2470.077,2020-3-06T10:25:07Z
2020-03-06T08:27:34Z,42.805,6.029,13.2973,4.59973,2470.087,2020-3-06T10:28:10Z
2020-03-06T08:30:37Z,42.805,6.029,13.2974,4.59973,2470.063,2020-3-06T10:31:13Z
2020-03-06T08:33:40Z,42.805,6.029,13.2972,4.59972,2470.087,2020-3-06T10:34:17Z
2020-03-06T08:36:43Z,42.805,6.029,13.2971,4.59973,2470.1,2020-3-06T10:37:20Z
2020-03-06T08:39:47Z,42.805,6.029,13.2976,4.59973,2470.087,2020-3-06T10:40:23Z
2020-03-06T08:42:50Z,42.805,6.029,13.2975,4.59976,2470.04,2020-3-06T10:43:26Z
2020-03-06T08:45:53Z,42.805,6.029,13.2971,4.59971,2470.1,2020-3-06T10:46:29Z
2020-03-06T08:48:56Z,42.805,6.029,13.2971,4.59973,2470.063,2020-3-06T10:49:33Z
2020-03-06T08:52:00Z,42.805,6.029,13.2974,4.59973,2470.077,2020-3-06T10:52:36Z
2020-03-06T08:55:03Z,42.805,6.029,13.2974,4.59973,2470.053,2020-3-06T10:55:39Z
2020-03-06T08:58:06Z,42.805,6.029,13.2974,4.59974,2470.063,2020-3-06T10:58:42Z
2020-03-06T09:01:09Z,42.805,6.029,13.2969,4.59973,2470.04,2020-3-06T11:01:46Z
2020-03-06T09:04:12Z,42.805,6.029,13.2972,4.59973,2470.077,2020-3-06T11:04:49Z
2020-03-06T09:07:16Z,42.805,6.029,13.2971,4.59973,2470.04,2020-3-06T11:07:52Z
2020-03-06T09:10:19Z,42.805,6.029,13.2972,4.59974,2470.04,2020-3-06T11:10:55Z
2020-03-06T09:13:22Z,42.805,6.029,13.2974,4.59973,2470.063,2020-3-06T11:13:58Z
2020-03-06T09:16:25Z,42.805,6.029,13.2972,4.59974,2470.053,2020-3-06T11:17:02Z
2020-03-06T09:19:28Z,42.805,6.029,13.2975,4.59973,2470.053,2020-3-06T11:20:05Z
2020-03-06T09:22:32Z,42.805,6.029,13.2971,4.59973,2470.04,2020-3-06T11:23:08Z
2020-03-06T09:25:35Z,42.805,6.029,13.2972,4.59973,2470.04,2020-3-06T11:26:11Z
2020-03-06T09:28:38Z,42.805,6.029,13.2972,4.59978,2470.03,2020-3-06T11:29:14Z
2020-03-06T09:31:41Z,42.805,6.029,13.2973,4.59975,2470.04,2020-3-06T11:32:18Z
2020-03-06T09:34:44Z,42.805,6.029,13.2974,4.59973,2470.007,2020-3-06T11:35:21Z
2020-03-06T09:37:48Z,42.805,6.029,13.2966,4.59973,2469.993,2020-3-06T11:38:24Z
2020-03-06T09:40:51Z,42.805,6.029,13.2974,4.59974,2470.04,2020-3-06T11:41:28Z
2020-03-06T09:43:54Z,42.805,6.029,13.2972,4.59973,2470.04,2020-3-06T11:44:31Z
2020-03-06T09:46:58Z,42.805,6.029,13.2971,4.59973,2470.03,2020-3-06T11:47:34Z
2020-03-06T09:50:01Z,42.805,6.029,13.2972,4.59973,2470.017,2020-3-06T11:50:37Z
2020-03-06T09:53:04Z,42.805,6.029,13.2974,4.59973,2470.017,2020-3-06T11:53:40Z
2020-03-06T09:56:07Z,42.805,6.029,13.2973,4.59976,2470.04,2020-3-06T11:56:44Z
2020-03-06T09:59:10Z,42.805,6.029,13.2974,4.59973,2469.993,2020-3-06T11:59:47Z
2020-03-06T10:02:14Z,42.805,6.029,13.2971,4.59975,2469.97,2020-3-06T12:02:50Z
2020-03-06T10:05:17Z,42.805,6.029,13.2971,4.59973,2470.007,2020-3-06T12:05:53Z
2020-03-06T10:08:20Z,42.805,6.029,13.2971,4.59972,2470.03,2020-3-06T12:08:56Z
2020-03-06T10:11:23Z,42.805,6.029,13.2969,4.59973,2469.993,2020-3-06T12:12:00Z
2020-03-06T10:14:26Z,42.805,6.029,13.2973,4.59976,2469.993,2020-3-06T12:15:03Z
2020-03-06T10:17:30Z,42.805,6.029,13.2973,4.59971,2470.017,2020-3-06T12:18:06Z
2020-03-06T10:20:33Z,42.805,6.029,13.2971,4.59971,2469.97,2020-3-06T12:21:09Z
2020-03-06T10:23:36Z,42.805,6.029,13.2973,4.59972,2469.993,2020-3-06T12:24:13Z
2020-03-06T10:26:39Z,42.805,6.029,13.2974,4.59971,2469.97,2020-3-06T12:27:16Z
2020-03-06T10:29:43Z,42.805,6.029,13.2971,4.59973,2469.993,2020-3-06T12:30:19Z
2020-03-06T10:32:46Z,42.805,6.029,13.2969,4.59973,2469.993,2020-3-06T12:33:22Z
2020-03-06T10:35:49Z,42.805,6.029,13.2976,4.59972,2470.017,2020-3-06T12:36:26Z
2020-03-06T10:38:52Z,42.805,6.029,13.2970,4.59973,2469.97,2020-3-06T12:39:29Z
2020-03-06T10:41:55Z,42.805,6.029,13.2972,4.59971,2469.984,2020-3-06T12:42:32Z
2020-03-06T10:44:59Z,42.805,6.029,13.2971,4.59973,2470.007,2020-3-06T12:45:35Z
2020-03-06T10:48:02Z,42.805,6.029,13.2971,4.59973,2470.007,2020-3-06T12:48:38Z
2020-03-06T10:51:05Z,42.805,6.029,13.2972,4.59973,2469.96,2020-3-06T12:51:42Z
2020-03-06T10:54:08Z,42.805,6.029,13.2971,4.59974,2469.97,2020-3-06T12:54:45Z
2020-03-06T10:57:12Z,42.805,6.029,13.2968,4.59972,2469.947,2020-3-06T12:57:48Z
2020-03-06T11:00:15Z,42.805,6.029,13.2971,4.59973,2469.984,2020-3-06T13:00:51Z
2020-03-06T11:03:18Z,42.805,6.029,13.2971,4.59972,2469.993,2020-3-06T13:03:55Z
2020-03-06T11:06:21Z,42.805,6.029,13.2968,4.59972,2469.984,2020-3-06T13:06:58Z
2020-03-06T11:09:24Z,42.805,6.029,13.2971,4.59971,2469.993,2020-3-06T13:10:01Z
2020-03-06T11:12:28Z,42.805,6.029,13.2974,4.59973,2469.993,2020-3-06T13:13:04Z
2020-03-06T11:15:31Z,42.805,6.029,13.2971,4.59973,2469.947,2020-3-06T13:16:07Z
2020-03-06T11:18:34Z,42.805,6.029,13.2974,4.59973,2469.984,2020-3-06T13:19:11Z
2020-03-06T11:21:37Z,42.805,6.029,13.2972,4.59972,2469.97,2020-3-06T13:22:14Z
2020-03-06T11:24:41Z,42.805,6.029,13.2967,4.59973,2470.007,2020-3-06T13:25:17Z
2020-03-06T11:27:44Z,42.805,6.029,13.2974,4.59971,2469.993,2020-3-06T13:28:20Z
2020-03-06T11:30:47Z,42.805,6.029,13.2970,4.59972,2469.97,2020-3-06T13:31:23Z
2020-03-06T11:33:50Z,42.805,6.029,13.2971,4.59972,2470.007,2020-3-06T13:34:27Z
2020-03-06T11:36:53Z,42.805,6.029,13.2974,4.59972,2469.984,2020-3-06T13:37:30Z
2020-03-06T11:39:57Z,42.805,6.029,13.2971,4.59972,2469.947,2020-3-06T13:40:33Z
2020-03-06T11:43:00Z,42.805,6.029,13.2970,4.59973,2469.97,2020-3-06T13:43:36Z
2020-03-06T11:46:03Z,42.805,6.029,13.2971,4.59972,2469.993,2020-3-06T13:46:40Z
2020-03-06T11:49:06Z,42.805,6.029,13.2977,4.59973,2469.947,2020-3-06T13:49:43Z
2020-03-06T11:52:09Z,42.805,6.029,13.2976,4.59974,2469.97,2020-3-06T13:52:46Z
2020-03-06T11:55:13Z,42.805,6.029,13.2977,4.59978,2469.97,2020-3-06T13:55:49Z
2020-03-06T11:58:16Z,42.805,6.029,13.2979,4.59974,2469.993,2020-3-06T13:58:52Z
2020-03-06T12:01:19Z,42.805,6.029,13.2972,4.59972,2469.947,2020-3-06T14:01:56Z
2020-03-06T12:04:22Z,42.805,6.029,13.2973,4.59972,2469.97,2020-3-06T14:04:59Z
2020-03-06T12:07:26Z,42.805,6.029,13.2975,4.59976,2469.984,2020-3-06T14:08:02Z
2020-03-06T12:10:29Z,42.805,6.029,13.2986,4.59991,2469.984,2020-3-06T14:11:05Z
2020-03-06T12:13:32Z,42.805,6.029,13.2974,4.59974,2469.984,2020-3-06T14:14:08Z
2020-03-06T12:16:35Z,42.805,6.029,13.2994,4.59990,2469.97,2020-3-06T14:17:12Z
2020-03-06T12:19:38Z,42.805,6.029,13.2974,4.59975,2469.97,2020-3-06T14:20:15Z
2020-03-06T12:22:42Z,42.805,6.029,13.2974,4.59974,2469.984,2020-3-06T14:23:18Z
2020-03-06T12:25:45Z,42.805,6.029,13.2972,4.59973,2469.947,2020-3-06T14:26:21Z
2020-03-06T12:28:48Z,42.805,6.029,13.2983,4.59977,2469.947,2020-3-06T14:29:25Z
2020-03-06T12:31:51Z,42.805,6.029,13.2992,4.59989,2469.96,2020-3-06T14:32:28Z
2020-03-06T12:34:55Z,42.805,6.029,13.2983,4.59973,2469.984,2020-3-06T14:35:31Z
2020-03-06T12:37:58Z,42.805,6.029,13.2993,4.59990,2469.947,2020-3-06T14:38:34Z
2020-03-06T12:41:01Z,42.805,6.029,13.2990,4.59991,2469.97,2020-3-06T14:41:37Z
2020-03-06T12:44:04Z,42.805,6.029,13.3004,4.59983,2469.947,2020-3-06T14:44:41Z
2020-03-06T12:47:07Z,42.805,6.029,13.2976,4.59973,2469.947,2020-3-06T14:47:44Z
2020-03-06T12:50:11Z,42.805,6.029,13.2982,4.59981,2469.96,2020-3-06T14:50:47Z
2020-03-06T12:53:14Z,42.805,6.029,13.2990,4.59985,2469.947,2020-3-06T14:53:50Z
2020-03-06T12:56:17Z,42.805,6.029,13.2988,4.60001,2469.947,2020-3-06T14:56:54Z
2020-03-06T12:59:21Z,42.805,6.029,13.2986,4.59996,2469.947,2020-3-06T14:59:57Z
2020-03-06T13:02:24Z,42.805,6.029,13.2992,4.60011,2469.97,2020-3-06T15:03:00Z
2020-03-06T13:05:27Z,42.805,6.029,13.2991,4.60019,2469.97,2020-3-06T15:06:04Z
2020-03-06T13:08:30Z,42.805,6.029,13.2989,4.60004,2469.96,2020-3-06T15:09:07Z
2020-03-06T13:11:34Z,42.805,6.029,13.2992,4.60001,2469.96,2020-3-06T15:12:10Z
2020-03-06T13:14:37Z,42.805,6.029,13.2999,4.59994,2469.947,2020-3-06T15:15:13Z
2020-03-06T13:17:40Z,42.805,6.029,13.2990,4.60009,2469.984,2020-3-06T15:18:16Z
2020-03-06T13:20:43Z,42.805,6.029,13.2982,4.60004,2469.97,2020-3-06T15:21:20Z
2020-03-06T13:23:47Z,42.805,6.029,13.2984,4.60016,2469.96,2020-3-06T15:24:23Z
2020-03-06T13:26:50Z,42.805,6.029,13.2986,4.60020,2470.007,2020-3-06T15:27:26Z
2020-03-06T13:29:53Z,42.805,6.029,13.2989,4.60021,2469.947,2020-3-06T15:30:29Z
2020-03-06T13:32:56Z,42.805,6.029,13.2985,4.60020,2470.007,2020-3-06T15:33:33Z
2020-03-06T13:35:59Z,42.805,6.029,13.2983,4.60016,2469.993,2020-3-06T15:36:36Z
2020-03-06T13:39:03Z,42.805,6.029,13.2994,4.60026,2469.984,2020-3-06T15:39:39Z
2020-03-06T13:42:06Z,42.805,6.029,13.2990,4.60019,2469.97,2020-3-06T15:42:42Z
2020-03-06T13:45:09Z,42.805,6.029,13.2990,4.60016,2469.97,2020-3-06T15:45:46Z
2020-03-06T13:48:12Z,42.805,6.029,13.2990,4.60023,2469.984,2020-3-06T15:48:49Z
2020-03-06T13:51:16Z,42.805,6.029,13.2983,4.60004,2469.984,2020-3-06T15:51:52Z
2020-03-06T13:54:19Z,42.805,6.029,13.2979,4.60016,2469.993,2020-3-06T15:54:55Z
2020-03-06T13:57:22Z,42.805,6.029,13.2982,4.60014,2469.984,2020-3-06T15:57:58Z
2020-03-06T14:00:25Z,42.805,6.029,13.2982,4.60021,2469.993,2020-3-06T16:01:02Z
2020-03-06T14:03:28Z,42.805,6.029,13.2986,4.60021,2470.007,2020-3-06T16:04:05Z
2020-03-06T14:06:31Z,42.805,6.029,13.2991,4.60029,2469.947,2020-3-06T16:07:08Z
2020-03-06T14:09:35Z,42.805,6.029,13.2982,4.60018,2469.97,2020-3-06T16:10:11Z
2020-03-06T14:12:38Z,42.805,6.029,13.2983,4.60011,2469.97,2020-3-06T16:13:14Z
2020-03-06T14:15:41Z,42.805,6.029,13.2984,4.60014,2469.993,2020-3-06T16:16:18Z
2020-03-06T14:18:45Z,42.805,6.029,13.2987,4.60024,2469.984,2020-3-06T16:19:21Z
2020-03-06T14:21:48Z,42.805,6.029,13.2982,4.60019,2469.993,2020-3-06T16:22:24Z
2020-03-06T14:24:51Z,42.805,6.029,13.2982,4.60011,2469.947,2020-3-06T16:25:27Z
2020-03-06T14:27:54Z,42.805,6.029,13.2988,4.60029,2470.007,2020-3-06T16:28:31Z
2020-03-06T14:30:58Z,42.805,6.029,13.2983,4.60042,2469.97,2020-3-06T16:31:34Z
2020-03-06T14:34:01Z,42.805,6.029,13.2982,4.60036,2470.017,2020-3-06T16:34:37Z
2020-03-06T14:37:04Z,42.805,6.029,13.2977,4.59999,2469.993,2020-3-06T16:37:41Z
2020-03-06T14:40:07Z,42.805,6.029,13.3002,4.60021,2469.993,2020-3-06T16:40:44Z
2020-03-06T14:43:11Z,42.805,6.029,13.2990,4.60043,2470.03,2020-3-06T16:43:47Z
2020-03-06T14:46:14Z,42.805,6.029,13.2983,4.60024,2469.993,2020-3-06T16:46:50Z
2020-03-06T14:49:17Z,42.805,6.029,13.2982,4.60010,2469.97,2020-3-06T16:49:53Z
2020-03-06T14:52:20Z,42.805,6.029,13.2993,4.60023,2469.984,2020-3-06T16:52:57Z
2020-03-06T14:55:24Z,42.805,6.029,13.2976,4.60005,2470.03,2020-3-06T16:56:00Z
2020-03-06T14:58:27Z,42.805,6.029,13.2988,4.60029,2469.993,2020-3-06T16:59:04Z
2020-03-06T15:01:30Z,42.805,6.029,13.2996,4.60035,2470.007,2020-3-06T17:02:07Z
2020-03-06T15:04:33Z,42.805,6.029,13.2983,4.60023,2469.993,2020-3-06T17:05:10Z
2020-03-06T15:07:37Z,42.805,6.029,13.2993,4.60040,2469.984,2020-3-06T17:08:13Z
2020-03-06T15:10:40Z,42.805,6.029,13.2988,4.60010,2470.007,2020-3-06T17:11:16Z